This is the latest recevied weather packets stored in our database for station/object N0KWA. If no packets are shown the sender has not sent any weather packets the latest 10 day(s).
| Time | Temp. | Humidity | Pressure | Rain* | Wind** | Luminosity | Snow |
|---|---|---|---|---|---|---|---|
| 1788533508 | 23.89° C | 99% | 1018.4 hPa | 3.05 mm | - | 2 W/m² | - |
| 1788533204 | 23.89° C | 99% | 1018.2 hPa | 4.83 mm | - | 3 W/m² | - |
| 1788532899 | 23.89° C | 99% | 1018 hPa | 3.05 mm | - | 2 W/m² | - |
| 1788532595 | 23.89° C | 99% | 1018.2 hPa | 4.32 mm | - | 3 W/m² | - |
| 1788532292 | 23.89° C | 99% | 1018.1 hPa | 10.67 mm | - | 3 W/m² | - |
| 1788531988 | 23.89° C | 99% | 1018.1 hPa | 14.99 mm | - | 2 W/m² | - |
| 1788531683 | 23.89° C | 99% | 1018.1 hPa | 13.72 mm | - | 3 W/m² | - |
| 1788531378 | 23.89° C | 99% | 1017.9 hPa | 10.67 mm | - | 2 W/m² | - |
| 1788531074 | 23.89° C | 99% | 1017.9 hPa | 7.87 mm | - | 1 W/m² | - |
| 1788530770 | 23.33° C | 99% | 1017.6 hPa | 4.83 mm | - | 1 W/m² | - |
| 1788530463 | 23.33° C | 99% | 1017.5 hPa | 0 mm | - | 1 W/m² | - |
| 1788530162 | 23.33° C | 99% | 1017.5 hPa | 0 mm | - | 1 W/m² | - |
| 1788529859 | 23.33° C | 99% | 1017.5 hPa | 0 mm | - | 1 W/m² | - |
| 1788529554 | 23.33° C | 99% | 1017.5 hPa | 0 mm | - | 0 W/m² | - |
| 1788529248 | 23.33° C | 99% | 1017.4 hPa | 0 mm | - | 2 W/m² | - |
| 1788528943 | 23.33° C | 99% | 1017.6 hPa | 0 mm | - | 3 W/m² | - |
| 1788528639 | 23.33° C | 99% | 1017.5 hPa | 0 mm | - | 3 W/m² | - |
| 1788528333 | 23.33° C | 99% | 1017.4 hPa | 0 mm | - | 9 W/m² | - |
| 1788528027 | 23.33° C | 99% | 1017.1 hPa | 0 mm | - | 7 W/m² | - |
| 1788527752 | 23.33° C | 99% | 1017.2 hPa | 0 mm | - | 7 W/m² | - |
| 1788527418 | 23.33° C | 99% | 1017.3 hPa | 0 mm | - | 6 W/m² | - |
| 1788527117 | 23.33° C | 99% | 1017.3 hPa | 0 mm | - | 3 W/m² | - |
| 1788526817 | 23.33° C | 99% | 1017.3 hPa | 0 mm | - | 4 W/m² | - |
| 1788526514 | 23.33° C | 99% | 1017.1 hPa | 0 mm | - | 7 W/m² | - |
| 1788526208 | 23.33° C | 99% | 1017.1 hPa | 0 mm | - | 4 W/m² | - |
* Rain latest hour (hover to see other rain measurements)
** Current wind speed in m/s (hover to see current wind gust speed)